Regional Weather Roundup
Issued by NWS Northern Indiana

Home | Current Version | Previous Version | Graphics & Text | Print | Product List | Glossary On
Versions: 1 2 3 4 5 6 7 8 9 10 11 12 13 14 15 16 17 18 19 20 21 22 23 24 25 26 27 28 29 30 31 32 33 34 35 36 37 38 39 40 41 42 43 44 45 46 47 48 49 50
000
ASUS43 KIWX 232200
RWRIWX

KIWX WEATHER ROUNDUP
NATIONAL WEATHER SERVICE NORTHERN INDIANA
600 PM EDT MON MAY 23 2016

NOTE: "FAIR" INDICATES FEW OR NO CLOUDS BELOW 12,000 FEET WITH NO
SIGNIFICANT WEATHER AND/OR OBSTRUCTIONS TO VISIBILITY.

* THESE STATIONS ARE NOT UNDER NWS QUALITY CONTROL. THEY ALSO MAY NOT
  REPORT WEATHER SUCH AS PRECIPITATION OR FOG.

INZ001>027-232300-
NORTHERN INDIANA

CITY           SKY/WX    TMP DP  RH WIND       PRES   REMARKS
GARY*          MOSUNNY   77  54  44 E7        29.95F
SOUTH BEND     SUNNY     78  34  20 S7        29.97F
ELKHART*       SUNNY     77  43  29 S8        29.98F
GOSHEN         SUNNY     77  32  19 S10       29.98F
ANGOLA*        SUNNY     75  34  22 SE7       30.00S
FORT WAYNE     SUNNY     76  31  19 CALM      30.00F
PERU/GRISSOM   SUNNY     78  36  21 S5        29.97F

$$
INZ028>050-232300-
CENTRAL INDIANA

CITY           SKY/WX    TMP DP  RH WIND       PRES   REMARKS
LAFAYETTE      SUNNY     78  38  23 SE7       29.96F
KOKOMO*        SUNNY     77  37  24 SE8       29.98S
MUNCIE*        SUNNY     78  37  22 E8        29.99F
INDIANAPOLIS   SUNNY     77  37  23 SE7       29.98F

$$
MIZ043>046-050>051-056>058-064>065-071>073-077>080-232300-
SOUTHWEST LOWER MICHIGAN

CITY           SKY/WX    TMP DP  RH WIND       PRES   REMARKS
BATTLE CREEK   SUNNY     77  35  21 SE8       29.98F
BENTON HARBOR  SUNNY     76  42  29 CALM      29.96F
COLDWATER*     SUNNY     75  32  20 S6        29.99F
HILLSDALE*     SUNNY     74   9   8 CALM      30.00F
HOLLAND        SUNNY     76  43  30 W8        29.97F
GRAND RAPIDS   MOSUNNY   81  40  23 S7        29.96F
KALAMAZOO      SUNNY     78  33  19 VRB3      29.98F
STURGIS*       SUNNY     76  33  20 S8        29.98F
THREE RIVERS*  FAIR      78  31  17 S7        29.98S

$$
OHZ001>008-015>018-024>025-232300-
NORTHWEST OHIO

CITY           SKY/WX    TMP DP  RH WIND       PRES   REMARKS
DEFIANCE       SUNNY     78  35  21 CALM      30.00F
FINDLAY        SUNNY     77  42  28 NE3       29.99F
TOLEDO EXPRESS SUNNY     76  42  29 E7        29.98F
TOLEDO METCALF SUNNY     76  46  34 E6        30.00F
LIMA           SUNNY     76  42  29 W3        30.00F

$$
AND FOR LAKE MICHIGAN COASTAL AND OPEN LAKE BUOY OBSERVATIONS

STATION/POSITION TEMP    WIND        PRES    VSBY  WAVE
                 AIR SEA DIR/SP/G                  HT/PER
                 (F)     (DEG/KT/KT) (MB)    (MI)  (FT/S)
CALUMET HARBOR    67      50/  5/  9 1013.7F
MICHIGAN CITY     67     340/ 11/ 11   N/A
BURNS HARBOR      66      30/ 10/ 13 1014.6F
SAINT JOSEPH      67     360/  3/  5 1015.6F
SOUTH LAKE BUOY   58 51  150/  4/  6 1014.6          0
4 MI NW BRIDGMAN  65 63  350/  6/  6   N/A           0
MICHIGAN CITY     62 60   20/  6/  8   N/A           0

$$
&&



USA.gov is the U.S. government's official web portal to all federal, state and local government web resources and services.